DM5RC Weather Reports


time (UTC)temp
C
wind
direction
speed
KPH
gust
KPH
rain 1hr
cm
rain 24hr
cm
rain mn
cm
humidity
%
barometer
mb
20260502190825 20 155 1.6 3.2 0.00 0.00 0.00 38 1016.3
20260502190347 20 141 0.0 1.6 0.00 0.00 0.00 38 1016.3
20260502185829 20 138 0.0 3.2 0.00 0.00 0.00 39 1016.2
20260502185313 20 136 1.6 3.2 0.00 0.00 0.00 40 1016.2
20260502184818 20 215 0.0 0.0 0.00 0.00 0.00 42 1016.3
20260502184323 21 216 0.0 0.0 0.00 0.00 0.00 40 1016.3
20260502183828 21 215 0.0 0.0 0.00 0.00 0.00 38 1016.3
20260502183313 21 216 0.0 0.0 0.00 0.00 0.00 37 1016.3
20260502182816 22 215 0.0 0.0 0.00 0.00 0.00 36 1016.2
20260502182321 22 215 0.0 0.0 0.00 0.00 0.00 35 1016.2
20260502181316 23 215 0.0 1.6 0.00 0.00 0.00 32 1016.2
20260502180818 23 215 0.0 1.6 0.00 0.00 0.00 31 1016.2
20260502180341 24 215 0.0 1.6 0.00 0.00 0.00 30 1016.2
20260502170327 26 229 3.2 9.7 0.00 0.00 0.00 27 1016.4
20260502164328 26 193 3.2 9.7 0.00 0.00 0.00 26 1016.6
20260502163830 26 262 3.2 12.9 0.00 0.00 0.00 26 1016.6
20260502163332 26 187 3.2 12.9 0.00 0.00 0.00 26 1016.7
20260502162815 26 153 6.4 14.5 0.00 0.00 0.00 25 1016.7
20260502162317 26 263 6.4 193.1 0.00 0.00 0.00 25 1016.8
20260502161819 26 191 4.8 12.9 0.00 0.00 0.00 26 1016.8
20260502161321 26 201 8.0 12.9 0.00 0.00 0.00 25 1017.0
20260502160825 26 186 8.0 14.5 0.00 0.00 0.00 25 1017.0
20260502160329 26 210 8.0 14.5 0.00 0.00 0.00 25 1017.0
20260502152321 26 215 6.4 17.7 0.00 0.00 0.00 24 1017.5
20260502151841 26 227 4.8 17.7 0.00 0.00 0.00 25 1017.6
20260502151319 26 273 4.8 17.7 0.00 0.00 0.00 25 1017.8
20260502150840 27 226 11.3 17.7 0.00 0.00 0.00 25 1017.8
20260502150321 27 216 6.4 14.5 0.00 0.00 0.00 24 1017.8
20260502130329 26 123 9.7 17.7 0.00 0.00 0.00 26 1019.4
20260502123316 26 220 8.0 16.1 0.00 0.00 0.00 27 1019.8
20260502122817 26 218 9.7 16.1 0.00 0.00 0.00 26 1019.9
20260502122320 26 138 4.8 14.5 0.00 0.00 0.00 26 1019.9
20260502121822 26 212 6.4 14.5 0.00 0.00 0.00 27 1020.1
20260502121324 26 280 6.4 12.9 0.00 0.00 0.00 28 1020.1
20260502120824 26 256 4.8 16.1 0.00 0.00 0.00 27 1020.1
20260502120329 25 255 6.4 16.1 0.00 0.00 0.00 28 1020.3
20260502115831 26 146 8.0 16.1 0.00 0.00 0.00 28 1020.3
20260502115334 26 174 9.7 16.1 0.00 0.00 0.00 28 1020.4
20260502114816 26 258 1.6 14.5 0.00 0.00 0.00 30 1020.5
20260502114339 25 224 6.4 16.1 0.00 0.00 0.00 29 1020.5
20260502113843 26 222 6.4 16.1 0.00 0.00 0.00 30 1020.7
20260502113325 26 96 4.8 12.9 0.00 0.00 0.00 29 1020.6
20260502112825 26 189 3.2 12.9 0.00 0.00 0.00 30 1020.8
20260502112325 26 243 8.0 12.9 0.00 0.00 0.00 31 1020.9
20260502111846 25 189 1.6 12.9 0.00 0.00 0.00 31 1020.9
20260502111346 26 192 8.0 12.9 0.00 0.00 0.00 31 1020.9
20260502110826 26 225 4.8 12.9 0.00 0.00 0.00 31 1021.0
20260502110326 26 144 8.0 17.7 0.00 0.00 0.00 29 1021.0
20260502105847 25 145 6.4 20.9 0.00 0.00 0.00 30 1021.0
20260502105348 25 131 11.3 24.1 0.00 0.00 0.00 30 1021.1
20260502104829 25 108 11.3 17.7 0.00 0.00 0.00 30 1021.1
20260502104348 25 41 1.6 8.0 0.00 0.00 0.00 32 1021.2
20260502103823 25 277 3.2 11.3 0.00 0.00 0.00 33 1021.3
20260502103324 25 191 6.4 16.1 0.00 0.00 0.00 32 1021.4
20260502102825 25 154 6.4 14.5 0.00 0.00 0.00 32 1021.5
20260502102327 24 222 8.0 19.3 0.00 0.00 0.00 32 1021.5
20260502101828 24 231 11.3 19.3 0.00 0.00 0.00 33 1021.6
20260502101350 25 210 11.3 19.3 0.00 0.00 0.00 32 1021.7
20260502100831 25 146 3.2 17.7 0.00 0.00 0.00 33 1021.7
20260502100331 25 73 4.8 17.7 0.00 0.00 0.00 32 1021.8
20260502091321 23 253 4.8 14.5 0.00 0.00 0.00 36 1022.4
20260502090824 23 133 4.8 14.5 0.00 0.00 0.00 35 1022.4
20260502090325 23 133 8.0 14.5 0.00 0.00 0.00 35 1022.5
20260502071328 18 203 0.0 3.2 0.00 0.00 0.00 56 1023.3
20260502070849 18 253 0.0 3.2 0.00 0.00 0.00 58 1023.3
20260502070330 17 215 0.0 3.2 0.00 0.00 0.00 58 1023.3
20260502065832 17 166 0.0 3.2 0.00 0.00 0.00 59 1023.3
20260502065315 17 167 0.0 3.2 0.00 0.00 0.00 59 1023.3
20260502064816 16 185 0.0 4.8 0.00 0.00 0.00 61 1023.3
20260502064317 16 146 1.6 3.2 0.00 0.00 0.00 61 1023.4
20260502063817 16 193 1.6 4.8 0.00 0.00 0.00 62 1023.4
20260502063318 16 221 1.6 4.8 0.00 0.00 0.00 62 1023.4
20260502062819 15 183 1.6 3.2 0.00 0.00 0.00 64 1023.4
20260502062427 15 196 0.0 3.2 0.00 0.00 0.00 66 1023.5
20260502061823 15 142 0.0 3.2 0.00 0.00 0.00 67 1023.5
20260502061324 14 188 0.0 3.2 0.00 0.00 0.00 70 1023.5
20260502060824 13 208 1.6 3.2 0.00 0.00 0.00 69 1023.5
20260502060323 13 216 1.6 3.2 0.00 0.00 0.00 70 1023.5
20260502055843 12 235 1.6 4.8 0.00 0.00 0.00 72 1023.5
20260502055343 12 208 1.6 4.8 0.00 0.00 0.00 72 1023.5
20260502054823 12 226 1.6 4.8 0.00 0.00 0.00 73 1023.5
20260502054322 12 226 1.6 3.2 0.00 0.00 0.00 74 1023.5
20260502053822 11 212 0.0 3.2 0.00 0.00 0.00 75 1023.6
20260502053322 11 241 1.6 3.2 0.00 0.00 0.00 75 1023.5
20260502052822 11 222 0.0 1.6 0.00 0.00 0.00 76 1023.6
20260502052340 11 188 0.0 1.6 0.00 0.00 0.00 77 1023.6
20260502051820 11 219 0.0 1.6 0.00 0.00 0.00 77 1023.5
20260502051320 10 243 0.0 1.6 0.00 0.00 0.00 77 1023.5
20260502050820 11 243 0.0 1.6 0.00 0.00 0.00 75 1023.5
20260502050341 11 256 0.0 0.0 0.00 0.00 0.00 77 1023.5
20260502045820 10 256 0.0 0.0 0.00 0.00 0.00 78 1023.5
20260502045321 10 256 0.0 0.0 0.00 0.00 0.00 78 1023.4
20260502044821 10 256 0.0 0.0 0.00 0.00 0.00 78 1023.5
20260502044345 10 256 0.0 0.0 0.00 0.00 0.00 80 1023.5
20260502043846 9 256 0.0 0.0 0.00 0.00 0.00 81 1023.5
20260502043327 8 256 0.0 0.0 0.00 0.00 0.00 81 1023.5
20260502042850 8 256 0.0 0.0 0.00 0.00 0.00 81 1023.4
20260502042331 8 256 0.0 0.0 0.00 0.00 0.00 83 1023.4
20260502041831 8 256 0.0 0.0 0.00 0.00 0.00 86 1023.5
20260502041331 7 256 0.0 0.0 0.00 0.00 0.00 86 1023.4
20260502040814 7 256 0.0 0.0 0.00 0.00 0.00 88 1023.4
20260502040316 6 256 0.0 1.6 0.00 0.00 0.00 88 1023.4
20260502035838 6 256 0.0 0.0 0.00 0.00 0.00 88 1023.4
20260502035319 6 256 0.0 0.0 0.00 0.00 0.00 89 1023.4
20260502034821 6 256 0.0 0.0 0.00 0.00 0.00 88 1023.3
20260502034323 5 256 0.0 0.0 0.00 0.00 0.00 88 1023.4
20260502033846 6 256 0.0 0.0 0.00 0.00 0.00 88 1023.4
20260502033327 6 256 0.0 0.0 0.00 0.00 0.00 88 1023.4
20260502032829 6 256 0.0 1.6 0.00 0.00 0.00 88 1023.5
20260502032313 6 256 0.0 1.6 0.00 0.00 0.00 88 1023.5
20260502031816 5 256 0.0 1.6 0.00 0.00 0.00 88 1023.5
20260502031318 5 256 0.0 0.0 0.00 0.00 0.00 87 1023.5
20260502030821 5 256 0.0 0.0 0.00 0.00 0.00 87 1023.6
20260502030343 5 256 0.0 0.0 0.00 0.00 0.00 87 1023.6
20260502025823 5 256 0.0 0.0 0.00 0.00 0.00 86 1023.6
20260502025324 6 256 0.0 0.0 0.00 0.00 0.00 86 1023.6
20260502024846 6 256 0.0 0.0 0.00 0.00 0.00 86 1023.5
20260502024346 6 256 0.0 0.0 0.00 0.00 0.00 86 1023.6
20260502023828 6 256 0.0 0.0 0.00 0.00 0.00 86 1023.5
20260502023330 6 256 0.0 0.0 0.00 0.00 0.00 86 1023.5
20260502022830 6 256 0.0 1.6 0.00 0.00 0.00 86 1023.6
20260502022330 6 256 0.0 1.6 0.00 0.00 0.00 86 1023.6
20260502021830 6 256 0.0 0.0 0.00 0.00 0.00 85 1023.6
20260502021328 6 256 0.0 1.6 0.00 0.00 0.00 85 1023.6
20260502020825 6 256 0.0 1.6 0.00 0.00 0.00 85 1023.6
20260502020327 7 256 0.0 0.0 0.00 0.00 0.00 85 1023.7
20260502015829 6 256 0.0 0.0 0.00 0.00 0.00 86 1023.7
20260502015313 6 256 0.0 0.0 0.00 0.00 0.00 86 1023.7
20260502014815 6 256 0.0 0.0 0.00 0.00 0.00 86 1023.7
20260502014336 6 256 0.0 0.0 0.00 0.00 0.00 86 1023.8
20260502013814 6 256 0.0 0.0 0.00 0.00 0.00 86 1023.8
20260502012815 7 256 0.0 0.0 0.00 0.00 0.00 84 1023.8
20260502012316 7 256 0.0 0.0 0.00 0.00 0.00 85 1023.9
20260502011836 7 256 0.0 0.0 0.00 0.00 0.00 85 1024.0
20260502011315 7 256 0.0 0.0 0.00 0.00 0.00 85 1024.0
20260502010813 7 256 0.0 0.0 0.00 0.00 0.00 84 1024.0
20260502010316 7 256 0.0 0.0 0.00 0.00 0.00 84 1024.0
20260502005817 7 256 0.0 0.0 0.00 0.00 0.00 84 1024.1
20260502005320 7 256 0.0 0.0 0.00 0.00 0.00 83 1024.1
20260502004820 7 256 0.0 0.0 0.00 0.00 0.00 83 1024.3
20260502004323 8 256 0.0 0.0 0.00 0.00 0.00 83 1024.3
20260502003826 8 256 0.0 0.0 0.00 0.00 0.00 82 1024.3
20260502003313 8 256 0.0 0.0 0.00 0.00 0.00 82 1024.3
20260502002814 8 256 0.0 1.6 0.00 0.00 0.00 82 1024.3
20260502002315 8 256 0.0 1.6 0.00 0.00 0.00 82 1024.4
20260502001817 8 256 0.0 1.6 0.00 0.00 0.00 82 1024.3
20260502001320 8 256 0.0 1.6 0.00 0.00 0.00 82 1024.3
20260502000822 8 256 0.0 1.6 0.00 0.00 0.00 83 1024.4
20260502000341 8 256 0.0 1.6 0.00 0.00 0.00 83 1024.4
20260501235822 8 257 0.0 3.2 0.00 0.00 0.00 82 1024.4
20260501235324 8 264 1.6 3.2 0.00 0.00 0.00 82 1024.4
20260501234827 8 262 0.0 1.6 0.00 0.00 0.00 81 1024.4
20260501234315 8 262 0.0 3.2 0.00 0.00 0.00 81 1024.4
20260501233817 8 262 1.6 3.2 0.00 0.00 0.00 81 1024.4
20260501233319 9 259 0.0 0.0 0.00 0.00 0.00 80 1024.4
20260501232822 9 259 0.0 0.0 0.00 0.00 0.00 80 1024.4
20260501232321 9 259 0.0 1.6 0.00 0.00 0.00 79 1024.4
20260501231822 9 259 0.0 1.6 0.00 0.00 0.00 79 1024.4
20260501231325 9 259 0.0 1.6 0.00 0.00 0.00 79 1024.4
20260501230826 9 259 0.0 0.0 0.00 0.00 0.00 79 1024.4
20260501230326 9 259 0.0 0.0 0.00 0.00 0.00 79 1024.4
20260501225827 9 259 0.0 0.0 0.00 0.00 0.00 78 1024.4
20260501225327 10 259 0.0 0.0 0.00 0.00 0.00 78 1024.4
20260501224848 10 259 0.0 1.6 0.00 0.00 0.00 78 1024.4
20260501224328 10 259 0.0 1.6 0.00 0.00 0.00 78 1024.5
20260501223829 10 260 0.0 1.6 0.00 0.00 0.00 77 1024.4
20260501223331 10 260 0.0 1.6 0.00 0.00 0.00 77 1024.5
20260501222813 10 260 0.0 1.6 0.00 0.00 0.00 77 1024.5
20260501222317 10 260 0.0 1.6 0.00 0.00 0.00 77 1024.5
20260501221817 10 260 0.0 0.0 0.00 0.00 0.00 76 1024.6
20260501221319 11 260 0.0 0.0 0.00 0.00 0.00 76 1024.6
20260501220842 11 260 0.0 0.0 0.00 0.00 0.00 75 1024.5
20260501220344 11 260 0.0 0.0 0.00 0.00 0.00 75 1024.5
20260501215825 11 260 0.0 0.0 0.00 0.00 0.00 74 1024.5
20260501215330 11 260 0.0 0.0 0.00 0.00 0.00 74 1024.6
20260501214814 11 260 0.0 1.6 0.00 0.00 0.00 74 1024.6
20260501214317 11 260 0.0 3.2 0.00 0.00 0.00 74 1024.6
20260501213820 11 269 1.6 3.2 0.00 0.00 0.00 74 1024.6
20260501213342 11 273 1.6 1.6 0.00 0.00 0.00 73 1024.6
20260501212821 11 273 0.0 0.0 0.00 0.00 0.00 72 1024.5
20260501212341 11 273 0.0 0.0 0.00 0.00 0.00 72 1024.5
20260501211822 11 273 0.0 1.6 0.00 0.00 0.00 72 1024.5
20260501211327 12 273 0.0 1.6 0.00 0.00 0.00 71 1024.6
20260501210831 12 273 1.6 1.6 0.00 0.00 0.00 70 1024.6
20260501210313 12 325 0.0 0.0 0.00 0.00 0.00 70 1024.6
20260501205818 12 325 0.0 0.0 0.00 0.00 0.00 70 1024.6
20260501205341 12 325 0.0 0.0 0.00 0.00 0.00 70 1024.6
20260501204823 12 325 0.0 0.0 0.00 0.00 0.00 69 1024.6
20260501204325 12 325 0.0 0.0 0.00 0.00 0.00 69 1024.6
20260501203826 13 325 0.0 0.0 0.00 0.00 0.00 68 1024.6
20260501203326 13 325 0.0 0.0 0.00 0.00 0.00 67 1024.6
20260501202826 13 325 0.0 0.0 0.00 0.00 0.00 68 1024.6
20260501202348 13 325 0.0 0.0 0.00 0.00 0.00 67 1024.6
20260501201848 13 325 0.0 0.0 0.00 0.00 0.00 66 1024.6
20260501201328 13 325 0.0 1.6 0.00 0.00 0.00 65 1024.6
20260501200829 13 325 0.0 1.6 0.00 0.00 0.00 63 1024.6
20260501200330 14 325 0.0 0.0 0.00 0.00 0.00 63 1024.7
20260501195829 14 325 0.0 0.0 0.00 0.00 0.00 61 1024.7
20260501195331 15 325 0.0 0.0 0.00 0.00 0.00 61 1024.7
20260501194814 15 325 0.0 0.0 0.00 0.00 0.00 60 1024.7
20260501194317 15 325 0.0 0.0 0.00 0.00 0.00 59 1024.7
20260501193818 15 325 0.0 1.6 0.00 0.00 0.00 59 1024.8
20260501193321 15 325 0.0 1.6 0.00 0.00 0.00 59 1024.8
20260501192840 15 325 0.0 0.0 0.00 0.00 0.00 59 1024.8
20260501192321 16 325 0.0 0.0 0.00 0.00 0.00 59 1024.8
20260501191824 16 325 0.0 0.0 0.00 0.00 0.00 58 1024.7
20260501191346 16 325 0.0 0.0 0.00 0.00 0.00 58 1024.7